[[{"header":{"parameterUnit":"m.s-1","parameterCategory":1,"la1":30.2991,"la2":30.254,"lo1":-89.0895,"lo2":-89.0444,"dy":0.0017,"dx":0.0017,"nx":28,"ny":28,"refTime":"2024-05-12T03:00:00:Z","depth":0,"parameterNumber":2,"parameterNumberName":"U-component_of_WINDS"},"data":[0,0,0,0,0,0,0,0,0,0,0,0,0,0,0,0,0,0,0,0,0,0,0,0,0,0,0,0,0,0,0,0,0,0,0,0,0,0,0,0,0,0,0,0,0,0,0,0,0,0,0,0,0,0,0,0,0,0,-7.2312,-7.2313,0,-7.239,-7.2391,-7.2392,-7.2295,-7.2291,-7.2288,-7.2285,-7.2359,-7.2364,-7.2369,0,0,0,0,0,0,0,0,0,0,0,0,0,-7.2077,-7.2081,-7.2312,-7.2313,-7.2314,-7.239,-7.2391,-7.2392,-7.2296,-7.2291,-7.2287,-7.2283,-7.2357,-7.2364,-7.237,0,0,0,0,0,0,0,0,0,0,0,0,0,-7.2169,-7.2083,-7.2312,-7.2275,-7.2273,-7.239,-7.2391,-7.2392,-7.2297,-7.2291,-7.2286,-7.2281,-7.2355,-7.2363,-7.2371,-7.2526,0,0,-7.2395,-7.2398,0,0,0,0,0,0,0,0,-7.2164,-7.2178,-7.228,-7.2278,-7.2276,-7.2327,-7.2335,-7.2437,-7.2298,-7.2287,-7.2285,-7.2278,-7.2353,-7.236,-7.2386,-7.2529,-7.2532,-7.2396,-7.24,-7.2404,-7.2406,0,0,0,0,0,0,0,-7.2158,-7.2174,-7.2343,-7.2281,-7.2279,-7.2254,-7.2261,-7.2354,-7.2349,-7.2288,-7.2281,-7.2292,-7.235,-7.2379,-7.2387,-7.2533,-7.2395,-7.2402,-7.2407,-7.241,-7.2805,-7.2811,0,0,0,0,0,0,-7.2156,-7.2169,-7.234,-7.2345,-7.2206,-7.2262,-7.227,-7.2316,-7.2347,-7.2347,-7.2296,-7.2287,-7.2368,-7.2378,-7.239,-7.257,-7.2404,-7.2411,-7.2416,-7.2799,-7.2806,-7.2813,0,0,0,0,0,0,-7.2151,-7.2172,-7.2337,-7.2255,-7.2274,-7.2272,-7.2324,-7.232,-7.2349,-7.2354,-7.2352,-7.2327,-7.2364,-7.2378,-7.2492,-7.2572,-7.2415,-7.2422,-7.2793,-7.2802,-7.2809,-7.2935,0,0,0,0,0,0,-7.2145,-7.2171,-7.2231,-7.2258,-7.2279,-7.244,-7.2329,-7.2326,-7.2363,-7.2352,-7.2382,-7.2382,-7.2361,-7.2481,-7.25,-7.258,-7.2428,-7.2785,-7.2797,-7.2807,-7.2923,-7.2947,-7.2967,0,0,0,0,0,-7.2137,-7.2262,-7.2234,-7.2255,-7.2354,-7.2445,-7.2457,-7.2432,-7.237,-7.2429,-7.2432,-7.2381,-7.2561,-7.2494,-7.2514,-7.2597,-7.278,-7.2793,-7.2806,-7.2914,-7.2942,-7.2966,0,0,0,0,0,0,-7.2242,-7.2265,-7.2234,-7.2372,-7.2408,-7.2428,-7.2502,-7.2464,-7.2516,-7.2503,-7.2469,-7.2477,-7.2598,-7.2609,-7.2534,-7.2748,-7.266,-7.2678,-7.2735,-7.2762,-7.2783,-7.2775,-7.2435,0,0,0,0,0,-7.2283,-7.2356,-7.2371,-7.2491,-7.2511,-7.2504,-7.2543,-7.2521,-7.2556,-7.2569,-7.2581,-7.2615,-7.2679,-7.2722,-7.2782,-7.2927,-7.293,-7.2994,-7.3016,-7.3033,-7.3047,-7.3123,-7.315,-7.2855,-7.2855,-7.2855,0,0,-7.2364,-7.2386,-7.2434,-7.2513,-7.2538,-7.2613,-7.2517,-7.2601,-7.2655,-7.2582,-7.2689,-7.27,-7.2736,-7.2865,-7.2923,-7.2879,-7.3131,-7.305,-7.3064,-7.3068,-7.3139,-7.3167,-7.3192,-7.2864,-7.2862,-7.2861,0,0,-7.2551,-7.2576,-7.2678,-7.2706,-7.2745,-7.274,-7.2765,-7.2793,-7.2797,-7.2905,-7.2851,-7.2916,-7.3028,-7.3055,-7.3084,-7.3284,-7.3237,-7.3305,-7.3415,-7.3489,-7.3512,-7.3532,-7.36,-7.3625,-7.332,-7.332,-7.332,0,-7.2646,-7.2759,-7.2735,-7.2822,-7.2858,-7.2798,-7.2899,-7.2927,-7.2984,-7.3009,-7.296,-7.3099,-7.3119,-7.3253,-7.3302,-7.3329,-7.3354,-7.3298,-7.3511,-7.3531,-7.3549,-7.3614,-7.364,-7.3327,-7.3327,-7.3326,-7.3325,0,-7.2873,-7.2952,-7.303,-7.3087,-7.3132,-7.3227,-7.3215,-7.3264,-7.3239,-7.3239,-7.335,-7.3373,-7.3435,-7.3466,-7.3443,-7.3597,-7.3568,-7.3517,-7.3426,-7.3586,-7.3645,-7.367,-7.3338,-7.3336,-7.3333,-7.3332,0,0,-7.3123,-7.3169,-7.3197,-7.3222,-7.3263,-7.3323,-7.3415,-7.3478,-7.3518,-7.3561,-7.3634,-7.3732,-7.3684,-7.3717,-7.3696,-7.3762,-7.3915,-7.3701,-7.3701,-7.3737,-7.4084,-7.4119,-7.4148,-7.3887,-7.3892,-7.3896,-7.4079,0,-7.3307,-7.3467,-7.3449,-7.36,-7.3671,-7.3617,-7.3696,-7.3729,-7.3733,-7.3793,-7.3796,-7.3864,-7.3797,-7.3816,-7.3879,-7.3883,-7.3984,-7.3871,-7.3952,-7.3955,-7.394,-7.418,-7.4218,-7.439,-7.4103,-7.4107,-7.411,0,-7.3542,-7.3594,-7.3753,-7.3783,-7.3812,-7.3884,-7.3939,-7.3999,-7.4035,-7.4033,-7.4071,-7.4039,-7.4129,-7.4042,-7.4165,-7.4088,-7.4121,-7.4129,-7.4135,-7.4137,-7.4039,-7.4185,-7.4445,-7.4469,-7.4147,-7.4144,-7.4141,0,-7.3704,-7.3814,-7.3923,-7.3947,-7.3985,-7.4037,-7.4055,-7.4086,-7.4125,-7.4174,-7.4199,-7.4258,-7.4289,-7.4335,-7.432,-7.4258,-7.4445,-7.4356,-7.4442,-7.4443,-7.448,-7.4477,-7.4744,-7.4509,-7.4509,-7.4509,-7.4508,0,-7.3908,-7.4007,-7.3996,-7.4063,-7.4171,-7.415,-7.4257,-7.4269,-7.4297,-7.4364,-7.4322,-7.4385,-7.4363,-7.4425,-7.4414,-7.4515,-7.4531,-7.4529,-7.4524,-7.4531,-7.453,-7.4548,-7.4534,-7.4515,-7.4514,-7.4513,-7.4511,0,-7.4105,-7.4103,-7.4217,-7.4246,-7.4255,-7.4333,-7.4356,-7.4418,-7.4419,-7.4504,-7.4523,-7.4524,-7.4594,-7.4586,-7.4664,-7.4656,-7.4782,-7.4765,-7.477,-7.4764,-7.4849,-7.4839,-7.5133,-7.5169,-7.4915,-7.4918,-7.492,0,-7.4233,-7.4308,-7.4345,-7.4387,-7.4409,-7.4478,-7.4518,-7.4501,-7.4544,-7.4592,-7.4648,-7.4715,-7.4767,-7.4882,-7.4889,-7.4949,-7.493,-7.5029,-7.4938,-7.4942,-7.4926,-7.492,-7.4926,-7.5045,-7.5048,-7.505,-7.5052,0,-7.446,-7.4456,-7.4516,-7.4576,-7.4626,-7.4672,-7.4714,-7.475,-7.4737,-7.4788,-7.486,-7.4901,-7.4982,-7.5048,-7.5105,-7.5122,-7.5084,-7.5082,-7.5104,-7.5108,-7.5106,-7.5105,-7.4813,-7.5073,-7.5071,-7.507,-7.5069,-7.5068,-7.4624,-7.4687,-7.4723,-7.4791,-7.4821,-7.4862,-7.4921,-7.4931,-7.4991,-7.5056,-7.5043,-7.5124,-7.5158,-7.5231,-7.5254,-7.5316,-7.5279,-7.5313,-7.532,-7.5327,-7.5336,-7.5101,-7.5327,-7.5326,-7.5326,-7.5325,-7.5325,0,-7.4844,-7.4866,-7.4929,-7.499,-7.5043,-7.5007,-7.5052,-7.5098,-7.517,-7.5207,-7.526,-7.5343,-7.5407,-7.5421,-7.5482,-7.5529,-7.5513,-7.5545,-7.5539,-7.5543,-7.5367,-7.5339,-7.5557,-7.5557,-7.5557,-7.5557,-7.5557,-7.5557,-7.4965,-7.507,-7.507,-7.5189,-7.5209,-7.5288,-7.5317,-7.5353,-7.5382,-7.5477,-7.5531,-7.554,-7.5567,-7.563,-7.5687,-7.5689,-7.5712,-7.575,-7.5745,-7.5579,-7.5556,-7.5533,-7.5507,-7.5756,-7.5757,-7.5916,-7.5917,-7.5918]},{"header":{"parameterUnit":"m.s-1","parameterCategory":1,"la1":30.2991,"la2":30.254,"lo1":-89.0895,"lo2":-89.0444,"dy":0.0017,"dx":0.0017,"nx":28,"ny":28,"refTime":"2024-05-12T03:00:00:Z","depth":0,"parameterNumber":3,"parameterNumberName":"V-component_of_WINDS"},"data":[0,0,0,0,0,0,0,0,0,0,0,0,0,0,0,0,0,0,0,0,0,0,0,0,0,0,0,0,0,0,0,0,0,0,0,0,0,0,0,0,0,0,0,0,0,0,0,0,0,0,0,0,0,0,0,0,0,0,4.3238,4.3239,0,4.3277,4.3278,4.3278,4.3249,4.3248,4.3247,4.3246,4.3281,4.3283,4.3286,0,0,0,0,0,0,0,0,0,0,0,0,0,4.3136,4.3138,4.3238,4.3239,4.3239,4.3277,4.3278,4.3278,4.325,4.3248,4.3247,4.3245,4.3281,4.3283,4.3286,0,0,0,0,0,0,0,0,0,0,0,0,0,4.3178,4.3139,4.3238,4.323,4.3229,4.3277,4.3278,4.3278,4.325,4.3248,4.3246,4.3244,4.328,4.3283,4.3286,4.3343,0,0,4.3296,4.3297,0,0,0,0,0,0,0,0,4.3176,4.3182,4.323,4.323,4.323,4.3257,4.3255,4.33,4.325,4.3242,4.3246,4.3244,4.3274,4.3278,4.3289,4.3345,4.3346,4.3296,4.3298,4.3299,4.33,0,0,0,0,0,0,0,4.3173,4.318,4.3254,4.3231,4.3231,4.3223,4.3227,4.3263,4.3268,4.3243,4.3241,4.3246,4.3274,4.3286,4.329,4.3347,4.3296,4.3299,4.3301,4.3302,4.3452,4.3454,0,0,0,0,0,0,4.3171,4.3178,4.3252,4.3255,4.3198,4.3226,4.3231,4.325,4.3268,4.3269,4.3247,4.3244,4.3282,4.3286,4.3291,4.3359,4.3299,4.3302,4.3304,4.345,4.3453,4.3455,0,0,0,0,0,0,4.3169,4.3178,4.3251,4.3216,4.3224,4.323,4.3252,4.3252,4.3264,4.3271,4.3272,4.3259,4.328,4.3287,4.3331,4.336,4.3304,4.3307,4.3448,4.3451,4.3454,4.3496,0,0,0,0,0,0,4.3166,4.3178,4.32,4.3217,4.3226,4.3291,4.3254,4.3254,4.327,4.3266,4.3283,4.3283,4.3279,4.3326,4.3334,4.3363,4.3309,4.3445,4.3449,4.3453,4.3492,4.35,4.3507,0,0,0,0,0,4.3163,4.3209,4.3201,4.321,4.3255,4.3293,4.3298,4.3294,4.3273,4.3294,4.33,4.3283,4.3356,4.3331,4.334,4.337,4.3443,4.3448,4.3453,4.3488,4.3498,4.3507,0,0,0,0,0,0,4.3193,4.3211,4.3202,4.3255,4.3273,4.3288,4.3315,4.3304,4.3327,4.3323,4.3315,4.3319,4.3366,4.3373,4.3345,4.3427,4.3396,4.3403,4.342,4.343,4.3438,4.3434,4.3312,0,0,0,0,0,4.3206,4.3237,4.325,4.3296,4.3305,4.3309,4.3325,4.3321,4.3338,4.3345,4.3353,4.337,4.3396,4.3414,4.3439,4.3494,4.3496,4.3519,4.3527,4.3533,4.3538,4.3568,4.3578,4.3471,4.3471,4.347,0,0,4.3233,4.3246,4.3266,4.3302,4.3315,4.3347,4.3315,4.3349,4.3372,4.335,4.3392,4.3399,4.3417,4.3467,4.349,4.3474,4.3569,4.3539,4.3544,4.3545,4.3574,4.3584,4.3593,4.3474,4.3473,4.3473,0,0,4.3297,4.3311,4.3351,4.3366,4.3387,4.3389,4.3399,4.3416,4.3421,4.3464,4.3449,4.3475,4.3521,4.3535,4.3548,4.3621,4.3606,4.3629,4.3668,4.3697,4.3705,4.3713,4.3738,4.3747,4.3635,4.3635,4.3635,0,4.3327,4.3375,4.3372,4.3408,4.3425,4.3409,4.3449,4.3462,4.349,4.3501,4.3484,4.3543,4.3554,4.3607,4.3625,4.3637,4.3647,4.3626,4.3705,4.3712,4.3719,4.3743,4.3753,4.3637,4.3637,4.3637,4.3636,0,4.341,4.3444,4.3473,4.3503,4.3523,4.356,4.3563,4.3583,4.3578,4.3582,4.3627,4.364,4.3668,4.368,4.3675,4.3733,4.3723,4.3706,4.3674,4.3732,4.3754,4.3764,4.3641,4.364,4.3639,4.3639,0,0,4.3492,4.3522,4.3533,4.3546,4.357,4.3595,4.3632,4.3662,4.3679,4.3699,4.373,4.3771,4.3755,4.377,4.3766,4.3792,4.3849,4.3771,4.3772,4.3784,4.3914,4.3926,4.3936,4.384,4.3842,4.3843,4.3912,0,4.3557,4.3623,4.3624,4.3684,4.3715,4.3702,4.3734,4.3752,4.3758,4.3784,4.3789,4.3818,4.3796,4.3805,4.383,4.3836,4.3874,4.3832,4.3867,4.3868,4.3861,4.3948,4.3961,4.4025,4.3921,4.3922,4.3923,0,4.3641,4.3667,4.3731,4.3752,4.3765,4.3794,4.3821,4.3847,4.3867,4.3869,4.3887,4.388,4.3917,4.3887,4.3937,4.3909,4.3923,4.3929,4.3931,4.3933,4.3898,4.3951,4.4045,4.4054,4.3937,4.3936,4.3935,0,4.3693,4.3744,4.3789,4.3801,4.3827,4.3848,4.3859,4.3877,4.3896,4.3919,4.3931,4.3958,4.3973,4.3994,4.3994,4.3971,4.4045,4.4014,4.4047,4.4047,4.4061,4.406,4.4157,4.4073,4.4073,4.4073,4.4073,0,4.3765,4.3805,4.3813,4.3841,4.3885,4.3885,4.3929,4.3938,4.3955,4.3983,4.3974,4.4001,4.4,4.4027,4.4027,4.4069,4.4076,4.4078,4.4077,4.4078,4.4078,4.4086,4.4081,4.4076,4.4075,4.4075,4.4074,0,4.383,4.3837,4.3886,4.3907,4.3914,4.3945,4.3963,4.3989,4.3995,4.4031,4.404,4.4049,4.408,4.4083,4.4119,4.412,4.417,4.4165,4.4164,4.4162,4.4194,4.4191,4.43,4.4314,4.4222,4.4223,4.4223,0,4.3874,4.3905,4.3931,4.395,4.3963,4.3995,4.4014,4.4016,4.4036,4.4062,4.4085,4.4116,4.4141,4.4192,4.4201,4.4229,4.4224,4.426,4.4227,4.4228,4.4223,4.4221,4.4223,4.4265,4.4266,4.4267,4.4268,0,4.3952,4.3955,4.3984,4.4015,4.4039,4.4063,4.4085,4.4101,4.4106,4.4129,4.4162,4.4182,4.422,4.4251,4.4279,4.4289,4.4279,4.4279,4.4287,4.4287,4.4285,4.4286,4.4179,4.4275,4.4275,4.4274,4.4274,4.4273,4.4007,4.4035,4.4058,4.409,4.4108,4.413,4.4156,4.4166,4.4195,4.4227,4.4227,4.4263,4.4283,4.432,4.4333,4.4361,4.4349,4.4362,4.4365,4.4367,4.437,4.4283,4.4366,4.4366,4.4366,4.4366,4.4365,0,4.4084,4.4099,4.413,4.4163,4.4189,4.418,4.4205,4.4226,4.4259,4.428,4.4306,4.4344,4.4375,4.4387,4.4417,4.4437,4.4433,4.4445,4.4442,4.4445,4.438,4.4369,4.4447,4.4447,4.4447,4.4447,4.4447,4.4447,4.4127,4.4173,4.4179,4.4233,4.4247,4.4285,4.43,4.4319,4.4336,4.438,4.4407,4.4415,4.4433,4.4464,4.4491,4.4494,4.4505,4.4518,4.4519,4.4458,4.4449,4.4441,4.4431,4.4521,4.4521,4.4581,4.4582,4.4582]}]]